Time,TemperatureF,DewpointF,PressureIn,WindDirection,WindDirectionDegrees,WindSpeedMPH,WindSpeedGustMPH,Humidity,HourlyPrecipIn,Conditions,Clouds,dailyrainin,SoftwareType,DateUTC
2013-05-09 00:04:00,56.2,30.1,30.01,West,259,4.0,6.0,37,0.00,,,0.00,WUHU216DAVISVP2,2013-05-09 07:04:00,
2013-05-09 00:09:00,56.0,30.5,30.00,WSW,258,3.0,7.0,38,0.00,,,0.00,WUHU216DAVISVP2,2013-05-09 07:09:00,
2013-05-09 00:14:00,56.0,31.2,30.01,West,261,4.0,7.0,39,0.00,,,0.00,WUHU216DAVISVP2,2013-05-09 07:14:00,
2013-05-09 00:19:00,56.0,31.8,30.00,West,274,5.0,8.0,40,0.00,,,0.00,WUHU216DAVISVP2,2013-05-09 07:19:00,
2013-05-09 00:24:00,56.0,32.5,30.00,West,273,5.0,9.0,41,0.00,,,0.00,WUHU216DAVISVP2,2013-05-09 07:24:00,
2013-05-09 00:29:00,55.9,32.4,30.00,WNW,289,4.0,8.0,41,0.00,,,0.00,WUHU216DAVISVP2,2013-05-09 07:29:00,
2013-05-09 00:34:00,55.7,32.2,30.00,WNW,295,3.0,6.0,41,0.00,,,0.00,WUHU216DAVISVP2,2013-05-09 07:34:00,
2013-05-09 00:40:00,55.5,31.4,30.00,NW,305,4.0,6.0,40,0.00,,,0.00,WUHU216DAVISVP2,2013-05-09 07:40:00,
2013-05-09 00:45:00,54.8,29.5,30.00,NW,319,5.0,9.0,38,0.00,,,0.00,WUHU216DAVISVP2,2013-05-09 07:45:00,
2013-05-09 00:50:00,54.4,29.8,30.00,NW,317,5.0,9.0,39,0.00,,,0.00,WUHU216DAVISVP2,2013-05-09 07:50:00,
2013-05-09 00:55:00,54.1,30.1,30.00,NW,315,5.0,9.0,40,0.00,,,0.00,WUHU216DAVISVP2,2013-05-09 07:55:00,
2013-05-09 01:00:00,54.0,30.0,30.00,NW,318,5.0,8.0,40,0.00,,,0.00,WUHU216DAVISVP2,2013-05-09 08:00:00,
2013-05-09 01:05:00,53.9,29.9,30.00,NW,313,5.0,9.0,40,0.00,,,0.00,WUHU216DAVISVP2,2013-05-09 08:05:00,
2013-05-09 01:10:00,54.3,32.1,30.00,NW,309,6.0,10.0,43,0.00,,,0.00,WUHU216DAVISVP2,2013-05-09 08:10:00,
2013-05-09 01:15:00,55.0,32.8,29.99,WNW,299,6.0,10.0,43,0.00,,,0.00,WUHU216DAVISVP2,2013-05-09 08:15:00,
2013-05-09 01:20:00,55.3,32.4,29.99,WNW,299,6.0,9.0,42,0.00,,,0.00,WUHU216DAVISVP2,2013-05-09 08:20:00,
2013-05-09 01:25:00,55.3,34.8,29.99,WNW,296,6.0,10.0,46,0.00,,,0.00,WUHU216DAVISVP2,2013-05-09 08:25:00,
2013-05-09 01:30:00,55.3,35.9,29.98,WNW,297,6.0,10.0,48,0.00,,,0.00,WUHU216DAVISVP2,2013-05-09 08:30:00,
2013-05-09 01:35:00,55.2,36.3,29.99,WNW,293,6.0,8.0,49,0.00,,,0.00,WUHU216DAVISVP2,2013-05-09 08:35:00,
2013-05-09 01:40:00,55.3,37.0,29.98,WNW,298,7.0,9.0,50,0.00,,,0.00,WUHU216DAVISVP2,2013-05-09 08:40:00,
2013-05-09 01:45:00,55.3,37.5,29.98,WNW,302,8.0,11.0,51,0.00,,,0.00,WUHU216DAVISVP2,2013-05-09 08:45:00,
2013-05-09 01:51:00,55.3,37.5,29.98,WNW,301,5.0,10.0,51,0.00,,,0.00,WUHU216DAVISVP2,2013-05-09 08:51:00,
2013-05-09 01:56:00,55.1,37.3,29.98,WNW,297,5.0,10.0,51,0.00,,,0.00,WUHU216DAVISVP2,2013-05-09 08:56:00,
2013-05-09 02:01:00,55.1,37.3,29.98,WNW,292,5.0,9.0,51,0.00,,,0.00,WUHU216DAVISVP2,2013-05-09 09:01:00,
2013-05-09 02:06:00,55.0,37.2,29.98,WNW,297,5.0,10.0,51,0.00,,,0.00,WUHU216DAVISVP2,2013-05-09 09:06:00,
2013-05-09 02:11:00,55.1,37.8,29.98,WNW,296,6.0,10.0,52,0.00,,,0.00,WUHU216DAVISVP2,2013-05-09 09:11:00,
2013-05-09 02:16:00,55.0,37.7,29.98,WNW,301,6.0,11.0,52,0.00,,,0.00,WUHU216DAVISVP2,2013-05-09 09:16:00,
2013-05-09 02:21:00,55.1,38.3,29.98,NW,308,5.0,8.0,53,0.00,,,0.00,WUHU216DAVISVP2,2013-05-09 09:21:00,
2013-05-09 02:26:00,54.9,38.1,29.98,NW,309,5.0,10.0,53,0.00,,,0.00,WUHU216DAVISVP2,2013-05-09 09:26:00,
2013-05-09 02:31:00,54.7,37.9,29.98,NW,312,6.0,10.0,53,0.00,,,0.00,WUHU216DAVISVP2,2013-05-09 09:31:00,
2013-05-09 02:36:00,54.5,37.7,29.98,NW,313,5.0,10.0,53,0.00,,,0.00,WUHU216DAVISVP2,2013-05-09 09:36:00,
2013-05-09 02:41:00,54.3,38.1,29.98,NW,317,5.0,11.0,54,0.00,,,0.00,WUHU216DAVISVP2,2013-05-09 09:41:00,
2013-05-09 02:46:00,54.0,37.8,29.98,NW,315,4.0,8.0,54,0.00,,,0.00,WUHU216DAVISVP2,2013-05-09 09:46:00,
2013-05-09 02:51:00,54.0,37.8,29.98,NW,311,5.0,8.0,54,0.00,,,0.00,WUHU216DAVISVP2,2013-05-09 09:51:00,
2013-05-09 02:56:00,54.2,38.0,29.98,NW,307,5.0,8.0,54,0.00,,,0.00,WUHU216DAVISVP2,2013-05-09 09:56:00,
2013-05-09 03:01:00,54.4,37.7,29.98,NW,311,5.0,9.0,53,0.00,,,0.00,WUHU216DAVISVP2,2013-05-09 10:01:00,
2013-05-09 03:06:00,54.3,37.6,29.98,NW,309,5.0,9.0,53,0.00,,,0.00,WUHU216DAVISVP2,2013-05-09 10:06:00,
2013-05-09 03:12:00,54.1,37.9,29.98,NW,309,5.0,10.0,54,0.00,,,0.00,WUHU216DAVISVP2,2013-05-09 10:12:00,
2013-05-09 03:17:00,54.2,38.0,29.98,NW,305,6.0,9.0,54,0.00,,,0.00,WUHU216DAVISVP2,2013-05-09 10:17:00,
2013-05-09 03:22:00,54.3,37.6,29.98,NW,310,5.0,9.0,53,0.00,,,0.00,WUHU216DAVISVP2,2013-05-09 10:22:00,
2013-05-09 03:27:00,54.2,37.5,29.97,NW,312,5.0,8.0,53,0.00,,,0.00,WUHU216DAVISVP2,2013-05-09 10:27:00,
2013-05-09 03:32:00,54.0,37.8,29.97,NW,313,4.0,7.0,54,0.00,,,0.00,WUHU216DAVISVP2,2013-05-09 10:32:00,
2013-05-09 03:37:00,53.9,37.7,29.97,NW,311,4.0,7.0,54,0.00,,,0.00,WUHU216DAVISVP2,2013-05-09 10:37:00,
2013-05-09 03:42:00,53.9,37.7,29.98,NW,310,3.0,6.0,54,0.00,,,0.00,WUHU216DAVISVP2,2013-05-09 10:42:00,
2013-05-09 03:47:00,53.6,37.4,29.98,NW,317,3.0,5.0,54,0.00,,,0.00,WUHU216DAVISVP2,2013-05-09 10:47:00,
2013-05-09 03:52:00,53.2,37.0,29.97,NW,320,2.0,5.0,54,0.00,,,0.00,WUHU216DAVISVP2,2013-05-09 10:52:00,
2013-05-09 03:57:00,52.8,37.1,29.97,NW,318,3.0,5.0,55,0.00,,,0.00,WUHU216DAVISVP2,2013-05-09 10:57:00,
2013-05-09 04:02:00,52.6,36.9,29.98,NW,314,3.0,5.0,55,0.00,,,0.00,WUHU216DAVISVP2,2013-05-09 11:02:00,
2013-05-09 04:07:00,52.7,37.5,29.97,NW,309,4.0,7.0,56,0.00,,,0.00,WUHU216DAVISVP2,2013-05-09 11:07:00,
2013-05-09 04:12:00,53.0,37.3,29.97,NW,310,3.0,7.0,55,0.00,,,0.00,WUHU216DAVISVP2,2013-05-09 11:12:00,
2013-05-09 04:17:00,53.3,37.6,29.97,NW,308,4.0,6.0,55,0.00,,,0.00,WUHU216DAVISVP2,2013-05-09 11:17:00,
2013-05-09 04:22:00,53.3,37.1,29.98,WNW,303,2.0,3.0,54,0.00,,,0.00,WUHU216DAVISVP2,2013-05-09 11:22:00,
2013-05-09 04:27:00,53.0,37.3,29.98,WNW,302,2.0,3.0,55,0.00,,,0.00,WUHU216DAVISVP2,2013-05-09 11:27:00,
2013-05-09 04:33:00,52.8,37.1,29.98,WNW,297,2.0,5.0,55,0.00,,,0.00,WUHU216DAVISVP2,2013-05-09 11:33:00,
2013-05-09 04:38:00,52.6,36.5,29.98,West,273,2.0,3.0,54,0.00,,,0.00,WUHU216DAVISVP2,2013-05-09 11:38:00,
2013-05-09 04:43:00,51.8,36.7,29.98,West,273,1.0,2.0,56,0.00,,,0.00,WUHU216DAVISVP2,2013-05-09 11:43:00,
2013-05-09 04:48:00,51.4,36.7,29.98,WNW,294,2.0,3.0,57,0.00,,,0.00,WUHU216DAVISVP2,2013-05-09 11:48:00,
2013-05-09 04:53:00,51.6,37.4,29.98,NW,307,2.0,5.0,58,0.00,,,0.00,WUHU216DAVISVP2,2013-05-09 11:53:00,
2013-05-09 04:58:00,52.1,37.4,29.98,WNW,295,3.0,5.0,57,0.00,,,0.00,WUHU216DAVISVP2,2013-05-09 11:58:00,
2013-05-09 05:03:00,52.3,37.1,29.98,WNW,290,2.0,3.0,56,0.00,,,0.00,WUHU216DAVISVP2,2013-05-09 12:03:00,
2013-05-09 05:08:00,51.5,36.4,29.98,West,276,1.0,2.0,56,0.00,,,0.00,WUHU216DAVISVP2,2013-05-09 12:08:00,
2013-05-09 05:13:00,51.0,36.8,29.98,West,276,1.0,1.0,58,0.00,,,0.00,WUHU216DAVISVP2,2013-05-09 12:13:00,
2013-05-09 05:18:00,50.5,36.8,29.98,NW,317,2.0,3.0,59,0.00,,,0.00,WUHU216DAVISVP2,2013-05-09 12:18:00,
2013-05-09 05:23:00,50.1,36.4,29.98,NW,321,2.0,3.0,59,0.00,,,0.00,WUHU216DAVISVP2,2013-05-09 12:23:00,
2013-05-09 05:28:00,50.1,36.8,29.98,NW,325,3.0,4.0,60,0.00,,,0.00,WUHU216DAVISVP2,2013-05-09 12:28:00,
2013-05-09 05:33:00,50.2,36.9,29.98,NW,324,2.0,3.0,60,0.00,,,0.00,WUHU216DAVISVP2,2013-05-09 12:33:00,
2013-05-09 05:38:00,50.2,36.5,29.98,NW,325,1.0,2.0,59,0.00,,,0.00,WUHU216DAVISVP2,2013-05-09 12:38:00,
2013-05-09 05:43:00,49.8,36.6,29.98,NW,325,1.0,2.0,60,0.00,,,0.00,WUHU216DAVISVP2,2013-05-09 12:43:00,
2013-05-09 05:48:00,49.6,36.8,29.98,NW,322,1.0,2.0,61,0.00,,,0.00,WUHU216DAVISVP2,2013-05-09 12:48:00,
2013-05-09 05:54:00,50.4,37.6,29.99,NW,320,1.0,4.0,61,0.00,,,0.00,WUHU216DAVISVP2,2013-05-09 12:54:00,
2013-05-09 05:59:00,51.2,37.4,29.99,NW,317,1.0,2.0,59,0.00,,,0.00,WUHU216DAVISVP2,2013-05-09 12:59:00,
2013-05-09 06:04:00,52.0,37.3,29.99,NW,316,1.0,1.0,57,0.00,,,0.00,WUHU216DAVISVP2,2013-05-09 13:04:00,
2013-05-09 06:09:00,52.6,37.9,29.99,NW,324,2.0,3.0,57,0.00,,,0.00,WUHU216DAVISVP2,2013-05-09 13:09:00,
2013-05-09 06:14:00,53.2,38.0,29.99,NNW,329,2.0,4.0,56,0.00,,,0.00,WUHU216DAVISVP2,2013-05-09 13:14:00,
2013-05-09 06:19:00,54.1,38.3,29.99,NNW,327,2.0,4.0,55,0.00,,,0.00,WUHU216DAVISVP2,2013-05-09 13:19:00,
2013-05-09 06:24:00,54.9,38.1,29.99,NNW,330,2.0,4.0,53,0.00,,,0.00,WUHU216DAVISVP2,2013-05-09 13:24:00,
2013-05-09 06:29:00,55.5,38.2,29.99,NNW,333,2.0,5.0,52,0.00,,,0.00,WUHU216DAVISVP2,2013-05-09 13:29:00,
2013-05-09 06:34:00,56.1,38.2,29.99,NNW,335,2.0,4.0,51,0.00,,,0.00,WUHU216DAVISVP2,2013-05-09 13:34:00,
2013-05-09 06:39:00,56.5,38.1,29.99,NNW,333,3.0,5.0,50,0.00,,,0.00,WUHU216DAVISVP2,2013-05-09 13:39:00,
2013-05-09 06:44:00,56.8,38.4,29.99,NNW,333,3.0,5.0,50,0.00,,,0.00,WUHU216DAVISVP2,2013-05-09 13:44:00,
2013-05-09 06:49:00,57.1,38.1,29.99,NNW,332,4.0,6.0,49,0.00,,,0.00,WUHU216DAVISVP2,2013-05-09 13:49:00,
2013-05-09 06:54:00,57.3,38.3,29.99,NNW,327,2.0,5.0,49,0.00,,,0.00,WUHU216DAVISVP2,2013-05-09 13:54:00,
2013-05-09 07:01:00,57.8,38.2,29.99,NW,324,2.0,5.0,48,0.00,,,0.00,WUHU216DAVISVP2,2013-05-09 14:01:00,
2013-05-09 07:08:00,57.8,37.1,29.99,WSW,242,2.0,3.0,46,0.00,,,0.00,WUHU216DAVISVP2,2013-05-09 14:08:00,
2013-05-09 07:13:00,58.1,36.2,30.00,West,279,2.0,3.0,44,0.00,,,0.00,WUHU216DAVISVP2,2013-05-09 14:13:00,
2013-05-09 07:18:00,58.7,37.3,29.99,WNW,286,1.0,2.0,45,0.00,,,0.00,WUHU216DAVISVP2,2013-05-09 14:18:00,
2013-05-09 07:23:00,59.6,37.0,29.99,WNW,289,2.0,4.0,43,0.00,,,0.00,WUHU216DAVISVP2,2013-05-09 14:23:00,
2013-05-09 07:28:00,59.4,36.8,29.99,West,269,2.0,4.0,43,0.00,,,0.00,WUHU216DAVISVP2,2013-05-09 14:28:00,
2013-05-09 07:33:00,59.2,36.6,29.99,West,266,2.0,4.0,43,0.00,,,0.00,WUHU216DAVISVP2,2013-05-09 14:33:00,
2013-05-09 07:38:00,59.6,35.7,30.00,West,260,1.0,1.0,41,0.00,,,0.00,WUHU216DAVISVP2,2013-05-09 14:38:00,
2013-05-09 07:43:00,60.2,35.0,30.00,East,82,2.0,3.0,39,0.00,,,0.00,WUHU216DAVISVP2,2013-05-09 14:43:00,
2013-05-09 07:48:00,60.6,34.7,30.00,ENE,76,4.0,6.0,38,0.00,,,0.00,WUHU216DAVISVP2,2013-05-09 14:48:00,
2013-05-09 07:53:00,60.8,34.8,30.00,NNE,30,2.0,7.0,38,0.00,,,0.00,WUHU216DAVISVP2,2013-05-09 14:53:00,
2013-05-09 07:58:00,60.8,35.5,30.00,East,85,4.0,8.0,39,0.00,,,0.00,WUHU216DAVISVP2,2013-05-09 14:58:00,
2013-05-09 08:03:00,60.5,34.6,30.00,ENE,70,2.0,4.0,38,0.00,,,0.00,WUHU216DAVISVP2,2013-05-09 15:03:00,
2013-05-09 08:08:00,60.9,35.6,30.00,ESE,121,4.0,5.0,39,0.00,,,0.00,WUHU216DAVISVP2,2013-05-09 15:08:00,
2013-05-09 08:13:00,60.9,34.9,30.00,SE,143,3.0,5.0,38,0.00,,,0.00,WUHU216DAVISVP2,2013-05-09 15:13:00,
2013-05-09 08:18:00,61.0,35.0,30.00,ESE,113,5.0,8.0,38,0.00,,,0.00,WUHU216DAVISVP2,2013-05-09 15:18:00,
2013-05-09 08:23:00,61.2,35.2,30.00,East,100,2.0,4.0,38,0.00,,,0.00,WUHU216DAVISVP2,2013-05-09 15:23:00,
2013-05-09 08:29:00,61.5,34.8,30.00,East,99,2.0,4.0,37,0.00,,,0.00,WUHU216DAVISVP2,2013-05-09 15:29:00,
2013-05-09 08:34:00,61.6,36.2,30.00,ESE,110,3.0,8.0,39,0.00,,,0.00,WUHU216DAVISVP2,2013-05-09 15:34:00,
2013-05-09 08:39:00,61.2,36.5,30.00,SSE,152,4.0,9.0,40,0.00,,,0.00,WUHU216DAVISVP2,2013-05-09 15:39:00,
2013-05-09 08:44:00,61.3,36.6,30.00,SE,132,5.0,9.0,40,0.00,,,0.00,WUHU216DAVISVP2,2013-05-09 15:44:00,
2013-05-09 08:49:00,61.4,36.0,30.00,SE,126,5.0,10.0,39,0.00,,,0.00,WUHU216DAVISVP2,2013-05-09 15:49:00,
2013-05-09 08:54:00,61.1,35.8,30.00,SSE,155,4.0,8.0,39,0.00,,,0.00,WUHU216DAVISVP2,2013-05-09 15:54:00,
2013-05-09 08:59:00,61.4,36.0,30.00,SSE,163,4.0,10.0,39,0.00,,,0.00,WUHU216DAVISVP2,2013-05-09 15:59:00,
2013-05-09 09:04:00,61.8,35.1,30.00,SE,135,4.0,10.0,37,0.00,,,0.00,WUHU216DAVISVP2,2013-05-09 16:04:00,
2013-05-09 09:09:00,61.9,35.8,29.99,ESE,117,3.0,7.0,38,0.00,,,0.00,WUHU216DAVISVP2,2013-05-09 16:09:00,
2013-05-09 09:14:00,62.4,34.9,29.99,SSE,147,5.0,10.0,36,0.00,,,0.00,WUHU216DAVISVP2,2013-05-09 16:14:00,
2013-05-09 09:19:00,62.2,34.7,29.99,East,96,4.0,8.0,36,0.00,,,0.00,WUHU216DAVISVP2,2013-05-09 16:19:00,
2013-05-09 09:24:00,62.4,35.6,30.00,East,85,2.0,5.0,37,0.00,,,0.00,WUHU216DAVISVP2,2013-05-09 16:24:00,
2013-05-09 09:29:00,62.9,35.3,29.99,South,172,5.0,8.0,36,0.00,,,0.00,WUHU216DAVISVP2,2013-05-09 16:29:00,
2013-05-09 09:34:00,63.2,34.9,30.00,SE,132,5.0,9.0,35,0.00,,,0.00,WUHU216DAVISVP2,2013-05-09 16:34:00,
2013-05-09 09:39:00,63.0,34.0,30.00,ESE,121,3.0,9.0,34,0.00,,,0.00,WUHU216DAVISVP2,2013-05-09 16:39:00,
2013-05-09 09:44:00,63.0,34.0,30.00,SE,138,5.0,9.0,34,0.00,,,0.00,WUHU216DAVISVP2,2013-05-09 16:44:00,
2013-05-09 09:50:00,63.0,34.0,30.00,East,97,5.0,9.0,34,0.00,,,0.00,WUHU216DAVISVP2,2013-05-09 16:50:00,
2013-05-09 09:55:00,63.5,34.4,30.00,SE,146,5.0,10.0,34,0.00,,,0.00,WUHU216DAVISVP2,2013-05-09 16:55:00,
2013-05-09 10:00:00,63.5,33.7,30.00,SE,130,4.0,9.0,33,0.00,,,0.00,WUHU216DAVISVP2,2013-05-09 17:00:00,
2013-05-09 10:05:00,63.4,33.6,29.99,ENE,69,3.0,6.0,33,0.00,,,0.00,WUHU216DAVISVP2,2013-05-09 17:05:00,
2013-05-09 10:10:00,63.9,34.0,30.00,ESE,106,3.0,7.0,33,0.00,,,0.00,WUHU216DAVISVP2,2013-05-09 17:10:00,
2013-05-09 10:15:00,64.5,33.8,29.99,SE,140,5.0,11.0,32,0.00,,,0.00,WUHU216DAVISVP2,2013-05-09 17:15:00,
2013-05-09 10:20:00,64.6,33.9,30.00,SE,146,4.0,9.0,32,0.00,,,0.00,WUHU216DAVISVP2,2013-05-09 17:20:00,
2013-05-09 10:25:00,64.5,33.8,29.99,East,95,3.0,6.0,32,0.00,,,0.00,WUHU216DAVISVP2,2013-05-09 17:25:00,
2013-05-09 10:30:00,65.2,33.6,29.99,SSE,160,3.0,8.0,31,0.00,,,0.00,WUHU216DAVISVP2,2013-05-09 17:30:00,
2013-05-09 10:35:00,65.6,33.1,29.99,SSE,163,5.0,10.0,30,0.00,,,0.00,WUHU216DAVISVP2,2013-05-09 17:35:00,
2013-05-09 10:40:00,65.7,33.2,29.99,SE,146,4.0,9.0,30,0.00,,,0.00,WUHU216DAVISVP2,2013-05-09 17:40:00,
2013-05-09 10:45:00,66.1,32.7,29.99,SSE,151,5.0,8.0,29,0.00,,,0.00,WUHU216DAVISVP2,2013-05-09 17:45:00,
2013-05-09 10:50:00,66.1,32.7,29.99,East,96,4.0,7.0,29,0.00,,,0.00,WUHU216DAVISVP2,2013-05-09 17:50:00,
2013-05-09 10:55:00,66.4,33.0,29.99,SE,128,3.0,5.0,29,0.00,,,0.00,WUHU216DAVISVP2,2013-05-09 17:55:00,
2013-05-09 11:01:00,67.0,32.6,29.99,South,175,3.0,8.0,28,0.00,,,0.00,WUHU216DAVISVP2,2013-05-09 18:01:00,
2013-05-09 11:06:00,67.8,31.5,29.99,SSW,207,6.0,10.0,26,0.00,,,0.00,WUHU216DAVISVP2,2013-05-09 18:06:00,
2013-05-09 11:11:00,67.8,31.5,29.99,WSW,250,5.0,14.0,26,0.00,,,0.00,WUHU216DAVISVP2,2013-05-09 18:11:00,
2013-05-09 11:16:00,67.7,31.4,29.98,WSW,257,5.0,10.0,26,0.00,,,0.00,WUHU216DAVISVP2,2013-05-09 18:16:00,
2013-05-09 11:21:00,67.8,31.5,29.98,WNW,301,4.0,8.0,26,0.00,,,0.00,WUHU216DAVISVP2,2013-05-09 18:21:00,
2013-05-09 11:26:00,68.3,31.9,29.98,NW,310,4.0,14.0,26,0.00,,,0.00,WUHU216DAVISVP2,2013-05-09 18:26:00,
2013-05-09 11:31:00,68.5,32.1,29.98,WNW,286,2.0,4.0,26,0.00,,,0.00,WUHU216DAVISVP2,2013-05-09 18:31:00,
2013-05-09 11:36:00,69.0,31.6,29.97,SW,215,5.0,9.0,25,0.00,,,0.00,WUHU216DAVISVP2,2013-05-09 18:36:00,
2013-05-09 11:41:00,69.6,31.1,29.98,West,274,6.0,16.0,24,0.00,,,0.00,WUHU216DAVISVP2,2013-05-09 18:41:00,
2013-05-09 11:46:00,69.3,30.8,29.98,WSW,245,5.0,9.0,24,0.00,,,0.00,WUHU216DAVISVP2,2013-05-09 18:46:00,
2013-05-09 11:51:00,69.7,31.2,29.97,South,179,5.0,14.0,24,0.00,,,0.00,WUHU216DAVISVP2,2013-05-09 18:51:00,
2013-05-09 11:56:00,69.7,31.2,29.97,South,185,5.0,12.0,24,0.00,,,0.00,WUHU216DAVISVP2,2013-05-09 18:56:00,
2013-05-09 12:01:00,69.9,30.3,29.97,South,174,6.0,11.0,23,0.00,,,0.00,WUHU216DAVISVP2,2013-05-09 19:01:00,
2013-05-09 12:06:00,69.4,29.9,29.97,SSW,207,2.0,7.0,23,0.00,,,0.00,WUHU216DAVISVP2,2013-05-09 19:06:00,
2013-05-09 12:11:00,69.4,29.9,29.97,SE,144,6.0,11.0,23,0.00,,,0.00,WUHU216DAVISVP2,2013-05-09 19:11:00,
2013-05-09 12:16:00,69.3,29.8,29.96,SE,126,6.0,10.0,23,0.00,,,0.00,WUHU216DAVISVP2,2013-05-09 19:16:00,
2013-05-09 12:22:00,69.9,29.2,29.96,SSE,159,7.0,14.0,22,0.00,,,0.00,WUHU216DAVISVP2,2013-05-09 19:22:00,
2013-05-09 12:27:00,69.5,30.0,29.96,SE,129,3.0,7.0,23,0.00,,,0.00,WUHU216DAVISVP2,2013-05-09 19:27:00,
2013-05-09 12:32:00,70.1,29.4,29.96,SSW,203,3.0,9.0,22,0.00,,,0.00,WUHU216DAVISVP2,2013-05-09 19:32:00,
2013-05-09 12:37:00,70.3,28.4,29.96,SE,128,4.0,8.0,21,0.00,,,0.00,WUHU216DAVISVP2,2013-05-09 19:37:00,
2013-05-09 12:42:00,70.2,29.5,29.96,SE,144,5.0,9.0,22,0.00,,,0.00,WUHU216DAVISVP2,2013-05-09 19:42:00,
2013-05-09 12:47:00,70.7,27.6,29.95,SW,226,4.0,7.0,20,0.00,,,0.00,WUHU216DAVISVP2,2013-05-09 19:47:00,
2013-05-09 12:52:00,70.6,27.5,29.95,WSW,237,6.0,13.0,20,0.00,,,0.00,WUHU216DAVISVP2,2013-05-09 19:52:00,
2013-05-09 12:57:00,72.1,27.5,29.95,SW,230,8.0,14.0,19,0.00,,,0.00,WUHU216DAVISVP2,2013-05-09 19:57:00,
2013-05-09 13:02:00,72.5,25.2,29.95,SSW,210,8.0,16.0,17,0.00,,,0.00,WUHU216DAVISVP2,2013-05-09 20:02:00,
2013-05-09 13:07:00,72.6,25.2,29.95,WSW,247,7.0,15.0,17,0.00,,,0.00,WUHU216DAVISVP2,2013-05-09 20:07:00,
2013-05-09 13:12:00,72.7,23.9,29.95,SW,224,9.0,17.0,16,0.00,,,0.00,WUHU216DAVISVP2,2013-05-09 20:12:00,
2013-05-09 13:17:00,72.8,25.4,29.95,WSW,243,4.0,7.0,17,0.00,,,0.00,WUHU216DAVISVP2,2013-05-09 20:17:00,
2013-05-09 13:22:00,72.6,25.2,29.95,South,171,6.0,14.0,17,0.00,,,0.00,WUHU216DAVISVP2,2013-05-09 20:22:00,
2013-05-09 13:27:00,73.1,27.0,29.94,SSE,164,7.0,12.0,18,0.00,,,0.00,WUHU216DAVISVP2,2013-05-09 20:27:00,
2013-05-09 13:32:00,73.0,26.9,29.94,SW,217,6.0,11.0,18,0.00,,,0.00,WUHU216DAVISVP2,2013-05-09 20:32:00,
2013-05-09 13:37:00,73.7,26.1,29.94,SSW,207,7.0,14.0,17,0.00,,,0.00,WUHU216DAVISVP2,2013-05-09 20:37:00,
2013-05-09 13:43:00,73.3,24.3,29.94,South,187,7.0,12.0,16,0.00,,,0.00,WUHU216DAVISVP2,2013-05-09 20:43:00,
2013-05-09 13:48:00,73.1,25.6,29.94,SW,225,6.0,9.0,17,0.00,,,0.00,WUHU216DAVISVP2,2013-05-09 20:48:00,
2013-05-09 13:53:00,73.3,25.8,29.93,West,275,5.0,12.0,17,0.00,,,0.00,WUHU216DAVISVP2,2013-05-09 20:53:00,
2013-05-09 13:58:00,73.5,26.0,29.94,West,259,7.0,15.0,17,0.00,,,0.00,WUHU216DAVISVP2,2013-05-09 20:58:00,
2013-05-09 14:03:00,73.2,24.3,29.93,West,261,6.0,13.0,16,0.00,,,0.00,WUHU216DAVISVP2,2013-05-09 21:03:00,
2013-05-09 14:08:00,73.4,24.4,29.93,SW,222,5.0,13.0,16,0.00,,,0.00,WUHU216DAVISVP2,2013-05-09 21:08:00,
2013-05-09 14:13:00,73.6,24.6,29.93,SSW,192,5.0,13.0,16,0.00,,,0.00,WUHU216DAVISVP2,2013-05-09 21:13:00,
2013-05-09 14:18:00,73.6,24.6,29.92,South,171,3.0,6.0,16,0.00,,,0.00,WUHU216DAVISVP2,2013-05-09 21:18:00,
2013-05-09 14:23:00,73.4,24.4,29.92,SSW,212,5.0,9.0,16,0.00,,,0.00,WUHU216DAVISVP2,2013-05-09 21:23:00,
2013-05-09 14:28:00,72.5,23.7,29.92,WSW,258,6.0,9.0,16,0.00,,,0.00,WUHU216DAVISVP2,2013-05-09 21:28:00,
2013-05-09 14:33:00,71.5,24.3,29.92,SW,214,3.0,7.0,17,0.00,,,0.00,WUHU216DAVISVP2,2013-05-09 21:33:00,
2013-05-09 14:38:00,71.1,24.0,29.92,WSW,247,5.0,11.0,17,0.00,,,0.00,WUHU216DAVISVP2,2013-05-09 21:38:00,
2013-05-09 14:43:00,71.0,25.3,29.92,West,268,4.0,9.0,18,0.00,,,0.00,WUHU216DAVISVP2,2013-05-09 21:43:00,
2013-05-09 14:48:00,71.3,24.2,29.92,WNW,295,3.0,6.0,17,0.00,,,0.00,WUHU216DAVISVP2,2013-05-09 21:48:00,
2013-05-09 14:53:00,71.5,24.3,29.92,SW,224,3.0,7.0,17,0.00,,,0.00,WUHU216DAVISVP2,2013-05-09 21:53:00,
2013-05-09 14:58:00,71.8,24.6,29.91,SSW,204,4.0,9.0,17,0.00,,,0.00,WUHU216DAVISVP2,2013-05-09 21:58:00,
2013-05-09 15:04:00,71.8,24.6,29.91,SSW,202,5.0,11.0,17,0.00,,,0.00,WUHU216DAVISVP2,2013-05-09 22:04:00,
2013-05-09 15:09:00,72.3,23.5,29.91,SSW,211,4.0,9.0,16,0.00,,,0.00,WUHU216DAVISVP2,2013-05-09 22:09:00,
2013-05-09 15:14:00,72.1,23.4,29.91,SSW,204,4.0,9.0,16,0.00,,,0.00,WUHU216DAVISVP2,2013-05-09 22:14:00,
2013-05-09 15:19:00,72.5,23.7,29.91,SW,226,6.0,11.0,16,0.00,,,0.00,WUHU216DAVISVP2,2013-05-09 22:19:00,
2013-05-09 15:24:00,72.7,22.3,29.91,West,273,4.0,10.0,15,0.00,,,0.00,WUHU216DAVISVP2,2013-05-09 22:24:00,
2013-05-09 15:29:00,73.0,22.5,29.91,West,277,5.0,11.0,15,0.00,,,0.00,WUHU216DAVISVP2,2013-05-09 22:29:00,
2013-05-09 15:34:00,74.6,23.8,29.91,SW,230,6.0,10.0,15,0.00,,,0.00,WUHU216DAVISVP2,2013-05-09 22:34:00,
2013-05-09 15:39:00,74.6,22.1,29.91,SSW,213,8.0,16.0,14,0.00,,,0.00,WUHU216DAVISVP2,2013-05-09 22:39:00,
2013-05-09 15:44:00,73.6,21.4,29.91,WSW,248,7.0,13.0,14,0.00,,,0.00,WUHU216DAVISVP2,2013-05-09 22:44:00,
2013-05-09 15:49:00,72.5,22.1,29.91,SW,236,6.0,10.0,15,0.00,,,0.00,WUHU216DAVISVP2,2013-05-09 22:49:00,
2013-05-09 15:54:00,71.9,21.7,29.91,WSW,249,4.0,9.0,15,0.00,,,0.00,WUHU216DAVISVP2,2013-05-09 22:54:00,
2013-05-09 15:59:00,71.5,21.3,29.91,WSW,238,7.0,12.0,15,0.00,,,0.00,WUHU216DAVISVP2,2013-05-09 22:59:00,
2013-05-09 16:04:00,71.2,22.6,29.91,SSW,202,6.0,14.0,16,0.00,,,0.00,WUHU216DAVISVP2,2013-05-09 23:04:00,
2013-05-09 16:09:00,71.1,22.6,29.91,SSW,194,7.0,13.0,16,0.00,,,0.00,WUHU216DAVISVP2,2013-05-09 23:09:00,
2013-05-09 16:14:00,72.2,23.5,29.91,SW,221,8.0,14.0,16,0.00,,,0.00,WUHU216DAVISVP2,2013-05-09 23:14:00,
2013-05-09 16:19:00,72.7,25.3,29.91,SSW,208,11.0,18.0,17,0.00,,,0.00,WUHU216DAVISVP2,2013-05-09 23:19:00,
2013-05-09 16:25:00,73.4,25.9,29.91,SSW,198,10.0,17.0,17,0.00,,,0.00,WUHU216DAVISVP2,2013-05-09 23:25:00,
2013-05-09 16:30:00,72.7,23.9,29.91,SSW,201,9.0,14.0,16,0.00,,,0.00,WUHU216DAVISVP2,2013-05-09 23:30:00,
2013-05-09 16:35:00,71.3,24.2,29.91,SSW,205,10.0,15.0,17,0.00,,,0.00,WUHU216DAVISVP2,2013-05-09 23:35:00,
2013-05-09 16:40:00,70.8,23.8,29.90,SSW,197,7.0,11.0,17,0.00,,,0.00,WUHU216DAVISVP2,2013-05-09 23:40:00,
2013-05-09 16:45:00,70.5,23.5,29.91,SSW,206,10.0,17.0,17,0.00,,,0.00,WUHU216DAVISVP2,2013-05-09 23:45:00,
2013-05-09 16:50:00,70.4,23.5,29.91,SW,226,9.0,15.0,17,0.00,,,0.00,WUHU216DAVISVP2,2013-05-09 23:50:00,
2013-05-09 16:55:00,70.4,23.5,29.91,WSW,244,5.0,12.0,17,0.00,,,0.00,WUHU216DAVISVP2,2013-05-09 23:55:00,
2013-05-09 17:00:00,70.3,23.4,29.91,SW,226,4.0,9.0,17,0.00,,,0.00,WUHU216DAVISVP2,2013-05-10 00:00:00,
2013-05-09 17:05:00,70.2,24.7,29.91,SSW,197,5.0,8.0,18,0.00,,,0.00,WUHU216DAVISVP2,2013-05-10 00:05:00,
2013-05-09 17:10:00,69.9,24.4,29.91,South,191,7.0,13.0,18,0.00,,,0.00,WUHU216DAVISVP2,2013-05-10 00:10:00,
2013-05-09 17:15:00,69.5,24.1,29.91,South,191,7.0,13.0,18,0.00,,,0.00,WUHU216DAVISVP2,2013-05-10 00:15:00,
2013-05-09 17:20:00,69.2,23.8,29.91,SSW,200,8.0,11.0,18,0.00,,,0.00,WUHU216DAVISVP2,2013-05-10 00:20:00,
2013-05-09 17:25:00,69.0,23.7,29.91,SSW,205,7.0,10.0,18,0.00,,,0.00,WUHU216DAVISVP2,2013-05-10 00:25:00,
2013-05-09 17:30:00,68.9,23.6,29.91,South,188,6.0,11.0,18,0.00,,,0.00,WUHU216DAVISVP2,2013-05-10 00:30:00,
2013-05-09 17:36:00,68.9,23.6,29.91,SSW,196,5.0,8.0,18,0.00,,,0.00,WUHU216DAVISVP2,2013-05-10 00:36:00,
2013-05-09 17:41:00,68.9,24.9,29.91,South,175,3.0,7.0,19,0.00,,,0.00,WUHU216DAVISVP2,2013-05-10 00:41:00,
2013-05-09 17:46:00,69.0,25.0,29.90,SE,139,3.0,6.0,19,0.00,,,0.00,WUHU216DAVISVP2,2013-05-10 00:46:00,
2013-05-09 17:51:00,69.1,23.8,29.90,SE,135,2.0,4.0,18,0.00,,,0.00,WUHU216DAVISVP2,2013-05-10 00:51:00,
2013-05-09 17:56:00,69.2,25.1,29.90,SSE,161,3.0,6.0,19,0.00,,,0.00,WUHU216DAVISVP2,2013-05-10 00:56:00,
2013-05-09 18:01:00,69.3,25.2,29.91,SSW,200,6.0,10.0,19,0.00,,,0.00,WUHU216DAVISVP2,2013-05-10 01:01:00,
2013-05-09 18:06:00,69.0,25.0,29.91,SSW,213,4.0,7.0,19,0.00,,,0.00,WUHU216DAVISVP2,2013-05-10 01:06:00,
2013-05-09 18:11:00,68.9,24.9,29.91,WSW,237,2.0,5.0,19,0.00,,,0.00,WUHU216DAVISVP2,2013-05-10 01:11:00,
2013-05-09 18:16:00,69.0,23.7,29.91,West,266,4.0,7.0,18,0.00,,,0.00,WUHU216DAVISVP2,2013-05-10 01:16:00,
2013-05-09 18:21:00,69.1,25.0,29.91,WSW,249,4.0,8.0,19,0.00,,,0.00,WUHU216DAVISVP2,2013-05-10 01:21:00,
2013-05-09 18:26:00,69.0,25.0,29.91,WSW,249,4.0,7.0,19,0.00,,,0.00,WUHU216DAVISVP2,2013-05-10 01:26:00,
2013-05-09 18:31:00,68.8,24.8,29.92,West,279,6.0,10.0,19,0.00,,,0.00,WUHU216DAVISVP2,2013-05-10 01:31:00,
2013-05-09 18:36:00,68.5,24.6,29.92,WNW,285,2.0,6.0,19,0.00,,,0.00,WUHU216DAVISVP2,2013-05-10 01:36:00,
2013-05-09 18:41:00,68.2,24.3,29.92,WNW,293,3.0,7.0,19,0.00,,,0.00,WUHU216DAVISVP2,2013-05-10 01:41:00,
2013-05-09 18:46:00,68.0,24.1,29.92,WNW,290,5.0,9.0,19,0.00,,,0.00,WUHU216DAVISVP2,2013-05-10 01:46:00,
2013-05-09 18:52:00,67.8,24.0,29.92,WNW,299,5.0,10.0,19,0.00,,,0.00,WUHU216DAVISVP2,2013-05-10 01:52:00,
2013-05-09 18:57:00,67.7,25.1,29.92,WNW,300,7.0,12.0,20,0.00,,,0.00,WUHU216DAVISVP2,2013-05-10 01:57:00,
2013-05-09 19:02:00,67.5,24.9,29.93,NW,304,7.0,11.0,20,0.00,,,0.00,WUHU216DAVISVP2,2013-05-10 02:02:00,
2013-05-09 19:07:00,67.4,26.0,29.93,WNW,296,9.0,18.0,21,0.00,,,0.00,WUHU216DAVISVP2,2013-05-10 02:07:00,
2013-05-09 19:12:00,67.0,25.7,29.93,NW,311,7.0,16.0,21,0.00,,,0.00,WUHU216DAVISVP2,2013-05-10 02:12:00,
2013-05-09 19:17:00,66.8,26.6,29.93,NNW,335,3.0,7.0,22,0.00,,,0.00,WUHU216DAVISVP2,2013-05-10 02:17:00,
2013-05-09 19:22:00,66.6,26.5,29.93,WNW,298,3.0,7.0,22,0.00,,,0.00,WUHU216DAVISVP2,2013-05-10 02:22:00,
2013-05-09 19:27:00,66.6,26.5,29.93,NNW,342,3.0,7.0,22,0.00,,,0.00,WUHU216DAVISVP2,2013-05-10 02:27:00,
2013-05-09 19:32:00,66.5,26.4,29.94,WNW,299,4.0,8.0,22,0.00,,,0.00,WUHU216DAVISVP2,2013-05-10 02:32:00,
2013-05-09 19:37:00,66.4,26.3,29.94,WNW,284,4.0,8.0,22,0.00,,,0.00,WUHU216DAVISVP2,2013-05-10 02:37:00,
2013-05-09 19:42:00,66.2,26.1,29.94,WNW,298,3.0,5.0,22,0.00,,,0.00,WUHU216DAVISVP2,2013-05-10 02:42:00,
2013-05-09 19:47:00,66.0,27.0,29.94,NW,313,3.0,5.0,23,0.00,,,0.00,WUHU216DAVISVP2,2013-05-10 02:47:00,
2013-05-09 19:52:00,65.8,26.9,29.95,NW,305,4.0,7.0,23,0.00,,,0.00,WUHU216DAVISVP2,2013-05-10 02:52:00,
2013-05-09 19:57:00,65.7,26.8,29.95,WNW,301,5.0,11.0,23,0.00,,,0.00,WUHU216DAVISVP2,2013-05-10 02:57:00,
2013-05-09 20:02:00,65.6,26.7,29.95,WNW,298,5.0,9.0,23,0.00,,,0.00,WUHU216DAVISVP2,2013-05-10 03:02:00,
2013-05-09 20:07:00,65.4,26.5,29.95,NW,306,4.0,8.0,23,0.00,,,0.00,WUHU216DAVISVP2,2013-05-10 03:07:00,
2013-05-09 20:13:00,65.1,26.3,29.95,NW,309,3.0,6.0,23,0.00,,,0.00,WUHU216DAVISVP2,2013-05-10 03:13:00,
2013-05-09 20:18:00,64.6,25.8,29.95,WNW,301,5.0,10.0,23,0.00,,,0.00,WUHU216DAVISVP2,2013-05-10 03:18:00,
2013-05-09 20:23:00,64.5,26.8,29.96,WNW,300,5.0,9.0,24,0.00,,,0.00,WUHU216DAVISVP2,2013-05-10 03:23:00,
2013-05-09 20:28:00,64.5,26.8,29.96,WNW,303,7.0,12.0,24,0.00,,,0.00,WUHU216DAVISVP2,2013-05-10 03:28:00,
2013-05-09 20:33:00,64.2,26.5,29.96,WNW,303,5.0,9.0,24,0.00,,,0.00,WUHU216DAVISVP2,2013-05-10 03:33:00,
2013-05-09 20:38:00,64.0,26.3,29.96,WNW,299,6.0,10.0,24,0.00,,,0.00,WUHU216DAVISVP2,2013-05-10 03:38:00,
2013-05-09 20:43:00,63.7,26.1,29.96,NW,313,3.0,7.0,24,0.00,,,0.00,WUHU216DAVISVP2,2013-05-10 03:43:00,
2013-05-09 20:48:00,62.9,25.4,29.96,NW,311,2.0,4.0,24,0.00,,,0.00,WUHU216DAVISVP2,2013-05-10 03:48:00,
2013-05-09 20:53:00,62.3,25.9,29.96,NW,313,3.0,5.0,25,0.00,,,0.00,WUHU216DAVISVP2,2013-05-10 03:53:00,
2013-05-09 20:58:00,61.9,25.5,29.96,NW,312,3.0,6.0,25,0.00,,,0.00,WUHU216DAVISVP2,2013-05-10 03:58:00,
2013-05-09 21:03:00,61.6,25.3,29.97,NW,316,3.0,6.0,25,0.00,,,0.00,WUHU216DAVISVP2,2013-05-10 04:03:00,
2013-05-09 21:08:00,61.3,25.9,29.97,NW,312,3.0,6.0,26,0.00,,,0.00,WUHU216DAVISVP2,2013-05-10 04:08:00,
2013-05-09 21:13:00,61.1,25.8,29.97,NW,313,3.0,6.0,26,0.00,,,0.00,WUHU216DAVISVP2,2013-05-10 04:13:00,
2013-05-09 21:18:00,61.1,25.8,29.97,NW,309,3.0,6.0,26,0.00,,,0.00,WUHU216DAVISVP2,2013-05-10 04:18:00,
2013-05-09 21:23:00,61.2,25.9,29.97,NW,311,5.0,9.0,26,0.00,,,0.00,WUHU216DAVISVP2,2013-05-10 04:23:00,
2013-05-09 21:28:00,61.3,25.9,29.97,NW,306,5.0,7.0,26,0.00,,,0.00,WUHU216DAVISVP2,2013-05-10 04:28:00,
2013-05-09 21:34:00,61.2,25.9,29.97,NW,307,5.0,8.0,26,0.00,,,0.00,WUHU216DAVISVP2,2013-05-10 04:34:00,
2013-05-09 21:39:00,61.3,25.9,29.97,NW,308,5.0,10.0,26,0.00,,,0.00,WUHU216DAVISVP2,2013-05-10 04:39:00,
2013-05-09 21:44:00,61.3,25.9,29.97,NW,310,5.0,8.0,26,0.00,,,0.00,WUHU216DAVISVP2,2013-05-10 04:44:00,
2013-05-09 21:49:00,61.4,26.0,29.97,NW,308,5.0,9.0,26,0.00,,,0.00,WUHU216DAVISVP2,2013-05-10 04:49:00,
2013-05-09 21:54:00,61.5,26.1,29.97,NW,311,5.0,10.0,26,0.00,,,0.00,WUHU216DAVISVP2,2013-05-10 04:54:00,
2013-05-09 21:59:00,61.5,26.1,29.97,NW,313,5.0,10.0,26,0.00,,,0.00,WUHU216DAVISVP2,2013-05-10 04:59:00,
2013-05-09 22:04:00,61.6,26.2,29.98,NW,313,5.0,10.0,26,0.00,,,0.00,WUHU216DAVISVP2,2013-05-10 05:04:00,
2013-05-09 22:09:00,62.0,26.5,29.98,WNW,297,6.0,9.0,26,0.00,,,0.00,WUHU216DAVISVP2,2013-05-10 05:09:00,
2013-05-09 22:14:00,62.4,26.9,29.98,WNW,296,6.0,11.0,26,0.00,,,0.00,WUHU216DAVISVP2,2013-05-10 05:14:00,
2013-05-09 22:19:00,62.5,27.0,29.98,WNW,299,6.0,10.0,26,0.00,,,0.00,WUHU216DAVISVP2,2013-05-10 05:19:00,
2013-05-09 22:24:00,62.4,26.9,29.98,WNW,300,6.0,12.0,26,0.00,,,0.00,WUHU216DAVISVP2,2013-05-10 05:24:00,
2013-05-09 22:29:00,62.3,26.8,29.98,WNW,301,8.0,11.0,26,0.00,,,0.00,WUHU216DAVISVP2,2013-05-10 05:29:00,
2013-05-09 22:34:00,62.2,27.6,29.98,WNW,299,7.0,13.0,27,0.00,,,0.00,WUHU216DAVISVP2,2013-05-10 05:34:00,
2013-05-09 22:39:00,61.9,27.4,29.98,WNW,299,7.0,11.0,27,0.00,,,0.00,WUHU216DAVISVP2,2013-05-10 05:39:00,
2013-05-09 22:44:00,61.5,27.0,29.98,WNW,301,6.0,10.0,27,0.00,,,0.00,WUHU216DAVISVP2,2013-05-10 05:44:00,
2013-05-09 22:50:00,61.1,27.5,29.98,WNW,297,6.0,11.0,28,0.00,,,0.00,WUHU216DAVISVP2,2013-05-10 05:50:00,
2013-05-09 22:55:00,60.9,27.4,29.98,WNW,297,6.0,12.0,28,0.00,,,0.00,WUHU216DAVISVP2,2013-05-10 05:55:00,
2013-05-09 23:00:00,60.7,28.0,29.98,WNW,301,6.0,11.0,29,0.00,,,0.00,WUHU216DAVISVP2,2013-05-10 06:00:00,
2013-05-09 23:05:00,60.6,28.0,29.98,WNW,300,7.0,9.0,29,0.00,,,0.00,WUHU216DAVISVP2,2013-05-10 06:05:00,
2013-05-09 23:10:00,60.2,26.8,29.98,NW,306,6.0,9.0,28,0.00,,,0.00,WUHU216DAVISVP2,2013-05-10 06:10:00,
2013-05-09 23:15:00,59.7,26.3,29.98,NW,304,6.0,9.0,28,0.00,,,0.00,WUHU216DAVISVP2,2013-05-10 06:15:00,
2013-05-09 23:20:00,59.4,26.9,29.98,WNW,300,6.0,10.0,29,0.00,,,0.00,WUHU216DAVISVP2,2013-05-10 06:20:00,
2013-05-09 23:25:00,59.1,26.7,29.98,WNW,300,6.0,9.0,29,0.00,,,0.00,WUHU216DAVISVP2,2013-05-10 06:25:00,
2013-05-09 23:30:00,59.0,26.6,29.98,WNW,297,6.0,10.0,29,0.00,,,0.00,WUHU216DAVISVP2,2013-05-10 06:30:00,
2013-05-09 23:35:00,58.8,26.4,29.99,NW,309,3.0,6.0,29,0.00,,,0.00,WUHU216DAVISVP2,2013-05-10 06:35:00,
2013-05-09 23:40:00,58.6,27.0,29.99,NW,313,3.0,6.0,30,0.00,,,0.00,WUHU216DAVISVP2,2013-05-10 06:40:00,
2013-05-09 23:45:00,58.2,26.7,29.99,NNW,333,2.0,5.0,30,0.00,,,0.00,WUHU216DAVISVP2,2013-05-10 06:45:00,
2013-05-09 23:50:00,57.6,26.2,29.99,NNW,333,2.0,4.0,30,0.00,,,0.00,WUHU216DAVISVP2,2013-05-10 06:50:00,
2013-05-09 23:56:00,57.1,26.5,29.99,NNW,328,1.0,2.0,31,0.00,,,0.00,WUHU216DAVISVP2,2013-05-10 06:56:00,